User: anonymous   Login
Location: Unspecified
(0.0000°N, 0.0000°E)
Time: 21:25:05
(UTC+00:00)
Language:

Kosmos-2195 - Orbit

View from above orbital plane
View from above orbital plane
View from above satellite
View from above satellite

Ground track
Ground track

The orbit data is extracted from the following two-line orbital elements,

1 22006U 92036A   18052.20367156  .00000043  00000-0  28444-4 0  9999
2 22006  82.9371 151.3367 0038425 107.6306 313.1209 13.74922707286640
Epoch (UTC): 21 February 2018 04:53:17
Eccentricity: 0.0038425
inclination: 82.9371°
perigee height: 953 km
apogee height: 1010 km
right ascension of ascending node: 151.3367°
argument of perigee: 107.6306°
revolutions per day: 13.74922707
mean anomaly at epoch: 313.1209°
orbit number at epoch: 28664

The dashed part of the orbit path shows where the satellite is in the earth's shadow,  

DLR